Regional Weather Roundup
Issued by NWS Jackson, KY

Home | Current Version | Previous Version | Graphics & Text | Print | Product List | Glossary On
Versions: 1 2 3 4 5 6 7 8 9 10 11 12 13 14 15 16 17 18 19 20 21 22 23 24 25 26 27 28 29 30 31 32 33 34 35 36 37 38 39 40 41 42 43 44 45 46 47 48 49 50
000
ASUS43 KJKL 312219
RWRJKL

EAST KENTUCKY HOURLY WEATHER ROUNDUP
NATIONAL WEATHER SERVICE JACKSON KY
500 PM EST SAT JAN 31 2015

NOTE: "FAIR" INDICATES FEW OR NO CLOUDS BELOW 12,000 FEET WITH
NO SIGNIFICANT WEATHER AND/OR OBSTRUCTIONS TO VISIBILITY.

* THESE REPORTS ARE NOT UNDER NWS QUALITY CONTROL AND MAY NOT
  REPORT WEATHER SUCH AS PRECIPITATION AND FOG.

KYZ079-080-083-085-087-088-110-112-115-119-120-312300
...EASTERN KENTUCKY...

CITY           SKY/WX    TMP DP  RH WIND       PRES   REMARKS
JACKSON        CLOUDY    40  12  32 W3        30.28S
LONDON         MOCLDY    43   6  21 CALM      30.29F
SOMERSET*      CLOUDY    43  12  28 W6        30.31S
MONTICELLO*    CLOUDY    44  16  32 CALM      30.32F
MIDDLESBORO*   PTCLDY    44  12  28 S7        30.30F
HARLAN APT*    MOCLDY    43   3  19 CALM      30.28S
BLACK MTN*       N/A     30  16  55 S5          N/A  WCI  25
PIKEVILLE APT* CLEAR     39  12  33 CALM      30.27S
BIG SANDY*     CLOUDY    40  16  37 S5        30.27F
MOREHEAD APT*  CLOUDY    37  16  41 SW6       30.30S WCI  33
ASHLAND*       CLEAR     39  18  41 CALM      30.28S
$$

KYZ035-036-041-042-044-050-067-078-099-312300
...CENTRAL KENTUCKY...

CITY           SKY/WX    TMP DP  RH WIND       PRES   REMARKS
MT STERLING*   MOCLDY    39  19  45 W6        30.30S WCI  35
FLEMING/MASON* CLOUDY    37  21  53 SW3       30.29S
DANVILLE*      CLOUDY    39  19  45 SW6       30.30F WCI  35
RICHMOND*      CLOUDY    39  16  38 SW6       30.29S WCI  35
LEXINGTON      CLOUDY    40  16  37 SW7       30.28F
FRANKFORT      CLOUDY    40  18  41 SW8       30.27F WCI  34
$$

KYZ091>093-OHZ055-061-077-WVZ005-015-034-035-042-312300
...SOUTHERN OHIO/WEST VIRGINIA...

CITY           SKY/WX    TMP DP  RH WIND       PRES   REMARKS
COVINGTON      CLOUDY    38  20  48 SW6       30.26F WCI  33
COLUMBUS       CLOUDY    33  21  61 SW10      30.26S WCI  25
DAYTON         CLOUDY    36  23  59 SW9       30.24S WCI  29
WILMINGTON     CLOUDY    34  22  61 SW8       30.24F WCI  27
HUNTINGTON     CLOUDY    38  16  40 SW3       30.28F
CHARLESTON     MOCLDY    37  15  40 SW8       30.28S WCI  31
PINEVILLE*     MOCLDY    37  24  60 MISG      30.31R
BECKLEY        PTCLDY    33  10  38 W8        30.23R WCI  26
BLUEFIELD      PTCLDY    36   4  26 W7        30.22R WCI  30
$$

VAZ002-007-008-TNZ017-027-036-066-071-312300
...SOUTHWEST VIRGINIA/EAST TENNESSEE...

CITY           SKY/WX    TMP DP  RH WIND       PRES   REMARKS
WISE*          MOCLDY    39  12  33 SW6       30.24S WCI  35
JONESVILLE*    MOCLDY    45   5  19 W3        30.30F
ABINGDON*      PTCLDY    41   8  25 W7        30.27S
BRISTOL        MOCLDY    43  10  26 SW7       30.29F
KNOXVILLE      CLOUDY    44  16  32 CALM      30.30F
OAK RIDGE      MOSUNNY   46  10  23 CALM      30.31F
CROSSVILLE     CLOUDY    44  10  25 SE3       30.27F
NASHVILLE      CLOUDY    46  12  25 E3        30.30F
$$

...KEY TO REMARKS...
VSB - VISIBILITY IN MILES
WCI - WIND CHILL INDEX
HX  - HEAT INDEX

$$



USA.gov is the U.S. government's official web portal to all federal, state and local government web resources and services.